Location: *
(51.0333°S, 178.4667°E)
Time: 21:14:59
(UTC+00:00)

Lacrosse 5 - Pass Details

Date: 15 November 2019
Orbit: 715 x 724 km, 57.0° (Epoch: 30 November)

Event Time Altitude Azimuth Distance (km) Brightness Sun altitude
Rises 10:40:35 0° 239° (WSW) 3,167 6.0 -18.8°
Reaches altitude 10° 10:43:00 10° 242° (WSW) 2,242 5.0 -18.9°
Maximum altitude 10:48:05 60° 321° (NW) 838 2.0 -19.2°
Enters shadow 10:49:47 39° 21° (NNE) 1,088 2.3 -19.2°
